INMARSAT 3-F5
1 25153U 98006B   03038.03923034  .00000145  00000-0  10000-3 0  8417
2 25153   0.4526 356.3786 0004512 320.8593 218.6620  1.00276425 18387
HOT BIRD 4
1 25237U 98013A   03013.80550721  .00000107  00000-0  10000-3 0  3250
2 25237   0.0242 116.4838 0007929 193.6371 105.7449  1.00276095 18185
NOAA 15
1 25338U 98030A   03042.99451824 +.00000205 +00000-0 +10749-3 0 00400
2 25338 098.5502 065.3229 0010405 341.6463 018.4341 14.24241426246863
RESURS O1-N4
1 25394U 98043A   03043.52237390  .00000172  00000-0  94087-4 0  4467
2 25394  98.6312 121.5622 0002272 114.8054 245.3362 14.23875814238673
TMSAT
1 25396U 98043C   03042.92869582 -.00000043 +00000-0 +00000-0 0 09737
2 25396 098.6280 120.1646 0003496 140.7802 219.3631 14.23508806238582
TECHSAT 1B
1 25397U 98043D   03042.94793171 +.00000074 +00000-0 +52058-4 0 01470
2 25397 098.6227 119.0731 0001642 134.6800 225.4512 14.22958180238553
ASTRA 2A
1 25462U 98050A   03041.00000000  .00000159  00000-0  00000+0 0  5315
2 25462   0.0385 308.7109 0004824 280.8620 298.3055  1.00272094 16351
EUTELSAT W2
1 25491U 98056A   03042.91588956  .00000113  00000-0  00000+0 0  5775
2 25491   0.0192 116.0474 0003737 183.8192 187.4223  1.00275227 15986
HOT BIRD 5
1 25495U 98057A   03038.05043983  .00000159  00000-0  00000+0 0  4999
2 25495   0.0465 259.5944 0004088  57.9351 230.4572  1.00271278 15906
SEDSAT 1
1 25509U 98061B   03043.35663419  .00000881  00000-0  16232-3 0  7770
2 25509  31.4284 188.2610 0358538 248.6157 107.5911 14.27422605224427
PAN SAT
1 25520U 98064B   03042.96684620 +.00003287 +00000-0 +16684-3 0 06389
2 25520 028.4592 267.8320 0005743 274.7131 085.2816 15.13849880236589
ISS (ZARYA)
1 25544U 98067A   03043.48753998  .00128221  00000-0  16368-2 0  6813
2 25544  51.6285 286.5102 0012519 191.4336 227.9706 15.58257059241555
ORSTED
1 25635U 99008B   03042.94915863 +.00001239 +00000-0 +32100-3 0 08310
2 25635 096.4498 030.7657 0145724 350.7216 009.1319 14.44826679208989
SUNSAT
1 25636U 99008C   03042.99091258 +.00000615 +00000-0 +16900-3 0 06684
2 25636 096.4523 029.4678 0149599 356.9250 003.1013 14.42947265208862
UOSAT 12
1 25693U 99021A   03043.45385296  .00000758  00000-0  12823-3 0  6983
2 25693  64.5594  29.5019 0019804 316.3500  43.6020 14.76382034205354
FENGYUN 1C
1 25730U 99025A   03043.55789845 -.00000032  00000-0  55660-5 0  7657
2 25730  98.6341  68.1833 0014742  23.3388 336.8449 14.11732751193781
ASTRA 1H
1 25785U 99033A   03041.00000000  .00000129  00000-0  10000-3 0  3719
2 25785   0.0122 319.8851 0002995  65.1991 133.7806  1.00273184 13418
TERRA
1 25994U 99068A   03043.26990660  .00000776  00000-0  18217-3 0  6897
2 25994  98.2008 119.5879 0000907  81.2782 278.8519 14.57125314167751
JAWSAT
1 26061U 00004A   03043.52496999  .00000627  00000-0  22622-3 0  7633
2 26061 100.2088  99.4730 0034792 296.9062  62.8565 14.37817956159667
OPAL
1 26063U 00004C   03043.56097091  .00000176  00000-0  81259-4 0  7191
2 26063 100.2139  97.0515 0036992 304.2828  55.4856 14.35478812159526
ASUSAT
1 26065U 00004E   03042.89066309  .00000186  00000-0  84559-4 0  7317
2 26065 100.2113  96.4058 0037000 307.1422  52.6381 14.35505736159425
GOES 11
1 26352U 00022A   03040.34226223 -.00000026  00000-0  10000-3 0   166
2 26352   0.1169 104.3657 0003610 219.8219 184.8358  1.00264164 10142
EUTELSAT W4
1 26369U 00028A   03042.91619900  .00000164  00000-0  00000+0 0  3523
2 26369   0.0295   8.5955 0003064 313.2309 185.6602  1.00275437  9983
FENGYUN 2B
1 26382U 00032A   03042.97640736 -.00000320  00000-0  00000+0 0  7923
2 26382   0.5833 287.5767 0001763 227.4922  82.3211  1.00279861  9649
EUTELSAT W1
1 26487U 00052A   03042.38401905  .00000000  00000-0  10000-3 0  3531
2 26487   0.0054 227.3454 0004136  80.8275 341.0643  1.00272936  8952
ASTRA 2B
1 26494U 00054A   03041.00000000  .00000159  00000-0  00000+0 0  2540
2 26494   0.0178 354.5658 0005000 302.8402 230.4186  1.00276704  8833
NOAA 16
1 26536U 00055A   03042.77877261  .00000388  00000-0  23653-3 0  2046
2 26536  98.9012 351.1125 0010269 329.4013  30.6581 14.11900395123193
SAUDISAT 1A
1 26545U 00057A   03042.71636511 +.00001623 +00000-0 +23366-3 0 04128
2 26545 064.5592 052.9838 0052541 239.8994 119.6899 14.78964048128219
UNISAT
1 26547U 00057C   03042.63870895  .00002608  00000-0  35483-3 0  4291
2 26547  64.5575  55.4833 0059580 242.1810 117.3263 14.79718373128162
TIUNGSAT 1
1 26548U 00057D   03042.54692983 +.00002029 +00000-0 +27356-3 0 04176
2 26548 064.5582 046.4711 0045880 239.0084 120.6511 14.81246822128332
SAUDISAT 1B
1 26549U 00057E   03043.49185858  .00001337  00000-0  20012-3 0  6906
2 26549  64.5520  54.6824 0057053 239.7772 119.7679 14.77903179128241
AMSAT OSCAR 40
1 26609U 00072B   03042.26455231 -.00000067  00000-0  10000-3 0  3104
2 26609   8.0482  65.4048 7940113 142.6388 315.2305  1.25596326 10493
GOES 12
1 26871U 01031A   03038.59289693 -.00000140  00000-0  10000-3 0  8106
2 26871   0.3528 276.6744 0003201 358.7723 337.2121  1.00363477  5725
PCSAT
1 26931U 01043C   03042.94668455 +.00000163 +00000-0 +96929-4 0 04023
2 26931 067.0479 272.6632 0005011 264.2308 095.8221 14.29111549071402
SAPPHIRE
1 26932U 01043D   03043.20546050  .00000136  00000-0  85815-4 0  3942
2 26932  67.0552 271.7039 0005118 240.6252 119.4337 14.29292190 71469
ENVISAT
1 27386U 02009A   03043.46720128  .00000208  00000-0  93470-4 0  9321
2 27386  98.5458 112.1027 0000959 104.8347 255.2939 14.32256665 49874
IDEFIX/ARIANE 42P
1 27422U 02021B   03043.50638298  .00000262  00000-0  12342-3 0  2317
2 27422  98.6953 122.7360 0012833 164.1575 196.0009 14.27966545 40598
FENGYUN 1D
1 27431U 02024B   03043.55938751 -.00000104  00000-0 -34914-4 0  2139
2 27431  98.7704  92.7030 0015966 139.2944 220.9422 14.09176833 38525
NOAA 17
1 27453U 02032A   03043.02779177  .00000293  00000-0  14877-3 0  3008
2 27453  98.7596 114.2739 0012264  19.4704 340.6940 14.23289418 33031
HOT BIRD 6
1 27499U 02038A   03013.80550721  .00000106  00000-0  10000-3 0   665
2 27499   0.0928  32.8693 0008090 290.3889  92.5421  1.00271722  1476
RUBIN 2
1 27605U 02058A   03043.53094403 -.00000558  00000-0 -67501-4 0   559
2 27605  64.5532 215.5730 0034395 116.4025 244.0681 14.71343956  7929
